Regional Weather Roundup
Issued by NWS Grand Forks, ND

Home | Current Version | Previous Version | Graphics & Text | Print | Product List | Glossary On
Versions: 1 2 3 4 5 6 7 8 9 10 11 12 13 14 15 16 17 18 19 20 21 22 23 24 25 26 27 28 29 30 31 32 33 34 35 36 37 38 39 40 41 42 43 44 45 46 47 48 49 50
238
ASUS43 KFGF 201910
RWRFGF
PRAIRIE TO PINES  WEATHER ROUNDUP
NATIONAL WEATHER SERVICE EASTERN NORTH DAKOTA/GRAND FORKS ND
100 PM CST MON NOV 20 2017

 **SATELLITE DATA USED TO AUGMENT SKY COVER AT AUTOMATED STATIONS**
 *****  WEATHER ACROSS EASTERN NORTH DAKOTA  *****

CITY           SKY/WX    TMP DP  RH WIND       PRES   REMARKS
GRAND FORKS    CLOUDY    39  30  70 SW10      29.28F
GRAND FRKS AFB CLOUDY    42  26  52 W16G23    29.27F
DEVILS LAKE    FAIR      41  28  60 W20       29.31F
FARGO          FAIR      46  26  45 SW10      29.35F
WAHPETON ARPT  NOT AVBL
$$

 ***** WEATHER ACROSS CENTRAL AND WESTERN NORTH DAKOTA  *****

CITY           SKY/WX    TMP DP  RH WIND       PRES   REMARKS
BISMARCK       FAIR      56  24  29 W14       29.44S
MINOT          PTSUNNY   48  27  44 W23G36    29.36R
JAMESTOWN      FAIR      50  25  37 W16G25    29.36F
MINOT AFB      FAIR      46  29  53 W33G41    29.34R
GARRISON         N/A     48  26  42 W20G30    29.40S
WILLISTON      FAIR      46  28  49 NW28G41   29.52R
DICKINSON      FAIR      52  20  28 NW30G41   29.48R
HETTINGER      FAIR      53  17  24 W23G30    29.53S
$$

 *****  OTHER AIRPORT OBSERVATIONS IN OUR AREA  *****

CITY           SKY/WX    TMP DP  RH WIND       PRES   REMARKS
WALHALLA       FAIR      43  28  56 W13G24    29.22R
GRAFTON AIRPOR NOT AVBL
VALLEY CITY AR NOT AVBL
CANDO          MOCLDY    41  28  60 W15       29.29F
CAVALIER APRT  FAIR      41  27  56 W14       29.23F
GWINNER          N/A     48  25  40 W20       29.40S
ROLLA          FAIR      41  27  56 W24G32    29.25F
 ***** THE ABOVE OBSERVATIONS ARE NON NWS ARE NOT QUALITY
       CONTROLLED AND MAY MIS-REPORT RAIN FOR SNOW...
$$

  *****  WEATHER ACROSS NORTHERN MINNESOTA  *****

CITY           SKY/WX    TMP DP  RH WIND       PRES   REMARKS
FLAG ISLAND    FAIR      36  27  69 SW8       29.21S
WARROAD        FAIR      37  30  75 SW12G21   29.23F
ROSEAU         FAIR      37  30  75 SW9       29.23F
HALLOCK        FAIR      34  30  86 S15       29.22F WCI  24
THF RVR FALLS  CLOUDY    36  28  73 S13       29.28F
BAUDETTE       CLOUDY    38  26  62 S12       29.22F
WASKISH        FAIR      39  27  60 S6        29.28F
CROOKSTON      FAIR      39  28  65 S13       29.30F
STEPHEN NDAWN    N/A     36  28  75 S10         N/A
GREENBUSH NDAW   N/A     36  28  75 S13         N/A
$$
  *****  WEATHER ACROSS CENTRAL AND WEST MINNESOTA  *****

CITY           SKY/WX    TMP DP  RH WIND       PRES   REMARKS
FOSSTON        FAIR      39  25  56 SW10      29.32F
BEMIDJI        FAIR      42  26  53 SW7       29.31F
PARK RAPIDS    FAIR      45  28  51 SW8       29.33F
ELBOW LAKE     FAIR      43  29  59 W10       29.40S
WADENA         FAIR      43  28  56 SW3       29.36F
DETROIT LAKES  FAIR      43  27  52 SW8       29.37F
MOORHEAD       FAIR      45  25  45 W12       29.37F
FERGUS FALLS   FAIR      45  28  53 SW8       29.41S
MORRIS MN      FAIR      45  28  53 SW8       29.40S
STAPLES        FAIR      39  27  60 SW7       29.38R
$$
  *****  WEATHER ELSEWHERE ACROSS MINNESOTA  *****

CITY           SKY/WX    TMP DP  RH WIND       PRES   REMARKS
DULUTH         FAIR      32  27  81 SE9       29.39F WCI  24
INTRNTL FALLS  CLOUDY    39  25  57 S3        29.28F
ELY            FAIR      37  27  65 SE9       29.35F
CLOQUET        FAIR      34  25  69 SE5       29.38F
WHEATON        FAIR      50  23  34 SW9       29.41S
BRAINERD       FAIR      40  27  59 S14       29.37F
HIBBING        FAIR      38  25  59 S8        29.35F
ALEXANDRIA     FAIR      40  29  64 SW12      29.40F
SAINT CLOUD    FAIR      37  29  72 S10       29.43F
MINNEAPOLIS    CLOUDY    45  30  55 VRB6      29.49F
$$

  *****  WEATHER ACROSS SOUTH DAKOTA  *****

CITY           SKY/WX    TMP DP  RH WIND       PRES   REMARKS
SIOUX FALLS    CLOUDY    46  27  47 SW8       29.52F
BROOKINGS      FAIR      47  26  44 SW7       29.47F
WATERTOWN      FAIR      45  25  45 SW13      29.45F
HURON          FAIR      53  24  32 SW6       29.49F
SISSETON         N/A     53  22  29 W24G32    29.36F
ABERDEEN       FAIR      54  28  36 SW9       29.45F
MITCHELL       FAIR      51  23  33 W9        29.50F
PIERRE         FAIR      58  23  26 W6        29.52F
MOBRIDGE       FAIR      61  21  21 NW18G26   29.45F
RAPID CITY     FAIR      65  15  14 N18G28    29.59F
$$

  *****  SOME WEATHER IN NEARBY STATES *****

CITY           SKY/WX    TMP DP  RH WIND       PRES   REMARKS
GLASGOW MT     CLOUDY    38  26  62 NW20G26   29.67R
GREAT FALLS MT CLOUDY    49  30  48 SW14      29.68R
CHEYENNE WY    FAIR      56   4  12 W44G58    29.75F
SCOTTSBLUFF NE FAIR      63   9  12 W25G41    29.70F
OMAHA NE       PTSUNNY   56  26  31 S14       29.62F
DES MOINES IA  PTSUNNY   61  25  25 S21G36    29.64F
DAVENPORT IA   FAIR      56  30  37 S22G30    29.76F
CHICAGO IL     FAIR      50  31  48 SW21G31   29.80F
EAU CLAIRE WI  FAIR      46  28  49 S9        29.51F
LA CROSSE WI   FAIR      50  30  46 S21G28    29.56F
$$

  *****  SOME NATIONAL WEATHER *****

CITY           SKY/WX    TMP DP  RH WIND       PRES   REMARKS
LA GUARDIA NY  FAIR      47  21  35 W20G29    30.02R
RALEIGH NC     FAIR      56  23  27 CALM      30.23F
ATLANTA GA     PTSUNNY   58  30  34 SE6       30.19F
NEW ORLEANS LA PTSUNNY   59  40  49 NW3       30.17F
OKLAHOMA CITY  FAIR      62  25  24 S31G38    29.94F
ALBUQUERQUE NM CLOUDY    50   4  15 SW6       30.14F
SALT LAKE CITY PTSUNNY   45  31  58 NW5       30.10R
LOS ANGELES CA PTSUNNY   71  37  28 VRB3      30.04F
BOISE ID       LGT RAIN  45  38  76 SE16      29.97F
SEATTLE WA     LGT RAIN  48  47  96 W6        29.71R FOG
$$

*** WEATHER ACROSS MANITOBA...SASKATCHEWAN AND ONTARIO ***
                ***ONTARIO***

CITY           SKY/WX    TMP DP  RH WIND       PRES   REMARKS
GERALDTON      CLOUDY    23  19  86 S3        29.55F
THUNDER BAY    CLOUDY    25  21  86 S2        29.49F
SIOUX LOOKOUT  CLOUDY    25  21  86 SE8       29.29F WCI  16
TORONTO        PTSUNNY   43  30  61 W13G22    29.89F
BIG TROUT LK   SUNNY      7   3  85 SW6       29.52F WCI  -3
PICKLE LAKE    LGT SNOW  14  10  85 E9        29.41F WCI   2
DRYDEN         CLOUDY    30  23  74 S5        29.28F
KENORA         CLOUDY    32  25  74 S9        29.20F WCI  24
$$
                *** MANITOBA***

CITY           SKY/WX    TMP DP  RH WIND       PRES   REMARKS
BRANDON        PTSUNNY   37  28  70 W22G28    29.21R
DAUPHIN        LGT SNOW  21  19  93 NW10      29.24R VSB 3/4 WCI  10
ISLAND LAKE    NOT AVBL
PILOT MOUND      N/A     41  27  56 W10G18      N/A
THE PAS        LGT SNOW  10   5  79 N9        29.43R VSB 1   WCI  -2
THOMPSON       PTSUNNY    5   0  78 N7        29.56S WCI  -7
WINNIPEG       LGT RAIN  36  27  69 SW8       29.17F
LYNN LAKE      FLURRIES   3   0  85 N7        29.61R WCI  -9
CHURCHILL      FLURRIES  21  18  86 NW16G23   29.55S WCI   7
GILLAM         FLURRIES   9   3  78 NW6       29.57S WCI  -1
$$
                ***SASKATCHEWAN***

CITY           SKY/WX    TMP DP  RH WIND       PRES   REMARKS
ESTEVAN        CLOUDY    30  25  80 NW28G37   29.46R WCI  16
KINDERSLEY     MOSUNNY    9   3  78 NW23G31   29.74R WCI -12
LLOYDMINSTER   MOSUNNY    3  -4  72 NW24G31   29.72R WCI -20
PRINCE ALBERT  LGT SNOW  14   7  73 NW24G32   29.56R BLWGSNOWWCI  -5
REGINA         CLOUDY    21  18  86 NW26G33   29.54R WCI   4
YORKTON        PTSUNNY   19  14  79 NW24G36   29.36R WCI   2
N. BATTLEFORD  CLOUDY     9   0  66 NW22G29   29.70R WCI -11
LA RONGE       LGT SNOW  10   5  79 NW8       29.58R VSB 1   WCI  -1
SASKATOON      BLWGSNOW  10   5  79 NW30G36   29.62R VSB 3/4 WCI -12
SWIFT CURRENT  CLOUDY    18   9  68 NW18G30   29.67R WCI   2
$$
NOTE: THESE ARE AUTOMATED STATIONS WITH LIMITED QUALITY CONTROL
      "FAIR" INDICATES FEW OR NO CLOUDS BELOW 12,000 FEET WITH NO
      SIGNIFICANT WEATHER AND/OR OBSTRUCTIONS TO VISIBILITY.
      SKY/WX - SKY CONDITION AND SIGNIFICANT WEATHER.
      TMP - AIR TEMPERATURE.    DP   - DEWPOINT TEMPERATURE.
      RH  - RELATIVE HUMIDITY.  PRES - PRESSURE.
      HX  - HEAT INDEX.         WCI  - WIND CHILL INDEX.
$




USA.gov is the U.S. government's official web portal to all federal, state and local government web resources and services.